[[{"header":{"parameterUnit":"m.s-1","parameterCategory":1,"la1":30.2991,"la2":30.254,"lo1":-89.0895,"lo2":-89.0444,"dx":0.0017,"dy":0.0017,"nx":28,"ny":28,"refTime":"2022-11-19T09:00:00:Z","depth":0,"parameterNumber":2,"parameterNumberName":"U-component_of_WINDS"},"data":[0,0,0,0,0,0,0,0,0,0,0,0,0,0,0,0,0,0,0,0,0,0,0,0,0,0,0,0,0,0,0,0,0,0,0,0,0,0,0,0,0,0,0,0,0,0,0,0,0,0,0,0,0,0,0,0,0,0,-3.2017,-3.2017,0,-3.2049,-3.2049,-3.2049,-3.1937,-3.1933,-3.193,-3.1927,-3.1958,-3.1962,-3.1966,0,0,0,0,0,0,0,0,0,0,0,0,0,-3.1856,-3.186,-3.2017,-3.2017,-3.2018,-3.2049,-3.2049,-3.2049,-3.1937,-3.1933,-3.1929,-3.1925,-3.1957,-3.1962,-3.1967,0,0,0,0,0,0,0,0,0,0,0,0,0,-3.1911,-3.1861,-3.2017,-3.1965,-3.1961,-3.2048,-3.2049,-3.205,-3.1938,-3.1933,-3.1928,-3.1923,-3.1956,-3.1961,-3.1967,-3.2105,0,0,-3.1986,-3.1988,0,0,0,0,0,0,0,0,-3.1908,-3.1917,-3.1972,-3.1969,-3.1964,-3.1983,-3.2004,-3.2068,-3.1939,-3.1947,-3.1927,-3.1921,-3.1971,-3.1975,-3.1992,-3.2107,-3.2108,-3.1986,-3.199,-3.1992,-3.1994,0,0,0,0,0,0,0,-3.1904,-3.1915,-3.2029,-3.1973,-3.1968,-3.194,-3.1942,-3.2016,-3.1987,-3.1946,-3.1938,-3.1943,-3.1968,-3.1987,-3.1992,-3.2109,-3.1986,-3.1991,-3.1995,-3.1997,-3.2337,-3.2342,0,0,0,0,0,0,-3.1908,-3.1913,-3.2028,-3.203,-3.1923,-3.1947,-3.1949,-3.1982,-3.1986,-3.1981,-3.1947,-3.1938,-3.1979,-3.1985,-3.1993,-3.2154,-3.1992,-3.1998,-3.2001,-3.2332,-3.2338,-3.2344,0,0,0,0,0,0,-3.1905,-3.1919,-3.2027,-3.1969,-3.1981,-3.1955,-3.1993,-3.1986,-3.2005,-3.1987,-3.1981,-3.1972,-3.1975,-3.1984,-3.2078,-3.2154,-3.2001,-3.2006,-3.2325,-3.2334,-3.2341,-3.2479,0,0,0,0,0,0,-3.19,-3.1919,-3.1971,-3.1971,-3.1984,-3.2113,-3.1998,-3.199,-3.2016,-3.2003,-3.2009,-3.2005,-3.1972,-3.207,-3.2084,-3.2159,-3.2011,-3.2318,-3.2329,-3.2339,-3.2468,-3.2491,-3.2511,0,0,0,0,0,-3.1895,-3.2009,-3.1975,-3.1989,-3.205,-3.2117,-3.2125,-3.2085,-3.2022,-3.2075,-3.2063,-3.2005,-3.2143,-3.208,-3.2095,-3.2174,-3.2313,-3.2326,-3.2338,-3.2458,-3.2486,-3.251,0,0,0,0,0,0,-3.2019,-3.2008,-3.197,-3.2087,-3.2104,-3.2098,-3.2163,-3.2116,-3.2151,-3.2138,-3.2087,-3.2089,-3.2192,-3.2192,-3.2122,-3.2307,-3.2217,-3.2233,-3.2303,-3.233,-3.2352,-3.235,-3.2016,0,0,0,0,0,-3.206,-3.2116,-3.2103,-3.2208,-3.2218,-3.219,-3.2218,-3.2185,-3.2201,-3.2207,-3.2202,-3.2219,-3.2265,-3.2298,-3.234,-3.2467,-3.2466,-3.2528,-3.2549,-3.2567,-3.2582,-3.2648,-3.2675,-3.2384,-3.2384,-3.2384,0,0,-3.2145,-3.2146,-3.2185,-3.2233,-3.2242,-3.2301,-3.2197,-3.2263,-3.2306,-3.2217,-3.2305,-3.2302,-3.2317,-3.2428,-3.2476,-3.2431,-3.2662,-3.2583,-3.2597,-3.2602,-3.2663,-3.2691,-3.2715,-3.2393,-3.2391,-3.239,0,0,-3.233,-3.2337,-3.2424,-3.2436,-3.2451,-3.2431,-3.2452,-3.2453,-3.2448,-3.2536,-3.247,-3.2519,-3.2602,-3.2615,-3.2632,-3.2822,-3.2769,-3.2837,-3.295,-3.3015,-3.3038,-3.3058,-3.3125,-3.315,-3.2851,-3.2851,-3.2851,0,-3.2434,-3.252,-3.2475,-3.2547,-3.2569,-3.2491,-3.2579,-3.2592,-3.2621,-3.2638,-3.2586,-3.2688,-3.2692,-3.2804,-3.2851,-3.2867,-3.2889,-3.2836,-3.3038,-3.3058,-3.3076,-3.3139,-3.3165,-3.2859,-3.2858,-3.2858,-3.2857,0,-3.2647,-3.2708,-3.2777,-3.2806,-3.2837,-3.2916,-3.2882,-3.2918,-3.2883,-3.2868,-3.2958,-3.2961,-3.3002,-3.3026,-3.2992,-3.3133,-3.3105,-3.3047,-3.2956,-3.3113,-3.3171,-3.3195,-3.2871,-3.2868,-3.2866,-3.2864,0,0,-3.2912,-3.2915,-3.2941,-3.2953,-3.2964,-3.301,-3.3085,-3.3125,-3.3157,-3.3179,-3.324,-3.3311,-3.3257,-3.3277,-3.3244,-3.3301,-3.345,-3.3236,-3.3235,-3.3276,-3.3605,-3.3649,-3.3678,-3.3415,-3.342,-3.3423,-3.3604,0,-3.3094,-3.3223,-3.3185,-3.3314,-3.3369,-3.3296,-3.3361,-3.3374,-3.3362,-3.3406,-3.3392,-3.3443,-3.3369,-3.338,-3.3433,-3.3421,-3.3516,-3.3407,-3.3471,-3.3474,-3.3471,-3.3709,-3.3756,-3.3927,-3.3627,-3.3631,-3.3634,0,-3.3324,-3.3355,-3.3491,-3.3491,-3.3513,-3.3572,-3.3606,-3.3649,-3.3662,-3.3649,-3.3671,-3.3626,-3.3699,-3.3607,-3.3706,-3.3633,-3.3657,-3.3655,-3.366,-3.3665,-3.3564,-3.3721,-3.398,-3.4006,-3.3669,-3.3666,-3.3664,0,-3.3504,-3.3579,-3.367,-3.3683,-3.3685,-3.3729,-3.3732,-3.374,-3.3766,-3.3795,-3.3812,-3.3849,-3.3869,-3.3898,-3.3864,-3.3801,-3.3968,-3.3874,-3.3959,-3.3961,-3.3999,-3.3997,-3.4266,-3.4014,-3.4013,-3.4013,-3.4012,0,-3.3712,-3.3797,-3.3751,-3.3807,-3.39,-3.3854,-3.3948,-3.3942,-3.395,-3.4002,-3.394,-3.3991,-3.3942,-3.3988,-3.3962,-3.4048,-3.4057,-3.4049,-3.4041,-3.4055,-3.4056,-3.407,-3.4057,-3.402,-3.4018,-3.4017,-3.4016,0,-3.3929,-3.3901,-3.3995,-3.399,-3.399,-3.406,-3.4054,-3.4105,-3.4088,-3.4156,-3.4169,-3.4142,-3.4193,-3.4162,-3.4213,-3.4195,-3.4308,-3.4283,-3.4304,-3.4297,-3.4384,-3.4377,-3.4673,-3.4709,-3.4433,-3.4436,-3.4438,0,-3.4063,-3.4128,-3.4129,-3.416,-3.4168,-3.4219,-3.4245,-3.4201,-3.4232,-3.4251,-3.4299,-3.4345,-3.4379,-3.4464,-3.4449,-3.4488,-3.4464,-3.4564,-3.4469,-3.4481,-3.4465,-3.4462,-3.4468,-3.4584,-3.4587,-3.459,-3.4592,0,-3.4305,-3.4288,-3.4329,-3.4366,-3.4399,-3.4425,-3.4447,-3.4475,-3.4431,-3.4468,-3.452,-3.4547,-3.4599,-3.4645,-3.4677,-3.4679,-3.4629,-3.4622,-3.4644,-3.4659,-3.4669,-3.4665,-3.4357,-3.4616,-3.4613,-3.4612,-3.461,-3.4609,-3.4485,-3.4539,-3.4548,-3.4595,-3.4607,-3.4628,-3.4675,-3.4664,-3.4706,-3.4746,-3.4717,-3.4778,-3.4788,-3.4826,-3.4835,-3.4881,-3.484,-3.4872,-3.488,-3.4889,-3.4901,-3.4661,-3.4887,-3.4886,-3.4886,-3.4885,-3.4884,0,-3.4724,-3.4726,-3.477,-3.4802,-3.4839,-3.4788,-3.4808,-3.4842,-3.4897,-3.4911,-3.4945,-3.5004,-3.5048,-3.5036,-3.5075,-3.5115,-3.5093,-3.5127,-3.5123,-3.5125,-3.4935,-3.4913,-3.5144,-3.5144,-3.5144,-3.5144,-3.5144,-3.5144,-3.4853,-3.494,-3.4924,-3.5016,-3.5017,-3.5077,-3.5093,-3.5111,-3.5122,-3.519,-3.5227,-3.5218,-3.5221,-3.526,-3.5298,-3.5293,-3.531,-3.5353,-3.534,-3.5164,-3.5138,-3.5114,-3.5092,-3.5357,-3.5358,-3.5526,-3.5527,-3.5528]},{"header":{"parameterUnit":"m.s-1","parameterCategory":1,"la1":30.2991,"la2":30.254,"lo1":-89.0895,"lo2":-89.0444,"dx":0.0017,"dy":0.0017,"nx":28,"ny":28,"refTime":"2022-11-19T09:00:00:Z","depth":0,"parameterNumber":3,"parameterNumberName":"V-component_of_WINDS"},"data":[0,0,0,0,0,0,0,0,0,0,0,0,0,0,0,0,0,0,0,0,0,0,0,0,0,0,0,0,0,0,0,0,0,0,0,0,0,0,0,0,0,0,0,0,0,0,0,0,0,0,0,0,0,0,0,0,0,0,-3.4402,-3.4402,0,-3.4424,-3.4424,-3.4424,-3.4359,-3.4357,-3.4355,-3.4353,-3.4374,-3.4376,-3.4379,0,0,0,0,0,0,0,0,0,0,0,0,0,-3.4303,-3.4305,-3.4402,-3.4402,-3.4402,-3.4424,-3.4424,-3.4424,-3.4359,-3.4357,-3.4354,-3.4352,-3.4373,-3.4376,-3.4379,0,0,0,0,0,0,0,0,0,0,0,0,0,-3.4337,-3.4305,-3.4402,-3.4372,-3.437,-3.4423,-3.4424,-3.4424,-3.4359,-3.4356,-3.4353,-3.4351,-3.4372,-3.4376,-3.4379,-3.4462,0,0,-3.439,-3.4392,0,0,0,0,0,0,0,0,-3.4335,-3.4341,-3.4377,-3.4375,-3.4372,-3.4385,-3.4396,-3.4437,-3.436,-3.4364,-3.4353,-3.4349,-3.438,-3.4383,-3.4393,-3.4463,-3.4464,-3.4391,-3.4393,-3.4395,-3.4396,0,0,0,0,0,0,0,-3.4333,-3.434,-3.441,-3.4377,-3.4374,-3.4358,-3.4359,-3.4404,-3.4388,-3.4363,-3.4358,-3.4362,-3.4378,-3.439,-3.4394,-3.4464,-3.4391,-3.4394,-3.4396,-3.4398,-3.4601,-3.4604,0,0,0,0,0,0,-3.4335,-3.4338,-3.441,-3.4411,-3.4346,-3.4362,-3.4364,-3.4384,-3.4388,-3.4385,-3.4364,-3.4359,-3.4385,-3.4389,-3.4394,-3.449,-3.4394,-3.4398,-3.44,-3.4598,-3.4602,-3.4605,0,0,0,0,0,0,-3.4333,-3.4342,-3.4409,-3.4373,-3.4381,-3.4367,-3.439,-3.4386,-3.4398,-3.4389,-3.4385,-3.4379,-3.4383,-3.4389,-3.4445,-3.449,-3.44,-3.4403,-3.4594,-3.4599,-3.4604,-3.4684,0,0,0,0,0,0,-3.433,-3.4341,-3.4373,-3.4374,-3.4383,-3.4461,-3.4393,-3.4389,-3.4404,-3.4397,-3.4402,-3.44,-3.4381,-3.444,-3.4449,-3.4494,-3.4406,-3.459,-3.4596,-3.4602,-3.4678,-3.4691,-3.4703,0,0,0,0,0,-3.4327,-3.4395,-3.4375,-3.4384,-3.4422,-3.4463,-3.4468,-3.4445,-3.4408,-3.444,-3.4434,-3.44,-3.4484,-3.4447,-3.4456,-3.4502,-3.4587,-3.4595,-3.4602,-3.4672,-3.4689,-3.4703,0,0,0,0,0,0,-3.4398,-3.4394,-3.4372,-3.4443,-3.4454,-3.4452,-3.4491,-3.4464,-3.4485,-3.4478,-3.4449,-3.445,-3.4512,-3.4512,-3.4471,-3.4582,-3.4529,-3.4539,-3.4579,-3.4595,-3.4608,-3.4606,-3.4409,0,0,0,0,0,-3.4422,-3.4457,-3.4451,-3.4514,-3.452,-3.4505,-3.4522,-3.4504,-3.4514,-3.4518,-3.4516,-3.4527,-3.4556,-3.4575,-3.4601,-3.4677,-3.4677,-3.4714,-3.4726,-3.4737,-3.4745,-3.4785,-3.4801,-3.4629,-3.4629,-3.4629,0,0,-3.4472,-3.4474,-3.4498,-3.4528,-3.4535,-3.457,-3.4509,-3.455,-3.4576,-3.4524,-3.4577,-3.4576,-3.4586,-3.4653,-3.4682,-3.4655,-3.4793,-3.4746,-3.4755,-3.4757,-3.4794,-3.4811,-3.4825,-3.4634,-3.4633,-3.4632,0,0,-3.4581,-3.4587,-3.4639,-3.4647,-3.4658,-3.4647,-3.466,-3.4662,-3.4659,-3.4712,-3.4674,-3.4704,-3.4755,-3.4764,-3.4775,-3.4887,-3.4856,-3.4896,-3.4963,-3.5002,-3.5015,-3.5027,-3.5067,-3.5082,-3.4904,-3.4905,-3.4905,0,-3.4642,-3.4695,-3.467,-3.4713,-3.4727,-3.4682,-3.4735,-3.4743,-3.4762,-3.4773,-3.4743,-3.4805,-3.4808,-3.4876,-3.4903,-3.4914,-3.4927,-3.4895,-3.5015,-3.5027,-3.5038,-3.5076,-3.5091,-3.4909,-3.4909,-3.4908,-3.4908,0,-3.4769,-3.4806,-3.4847,-3.4866,-3.4885,-3.4933,-3.4914,-3.4936,-3.4916,-3.4909,-3.4963,-3.4966,-3.4991,-3.5006,-3.4987,-3.5071,-3.5054,-3.502,-3.4967,-3.5059,-3.5094,-3.5109,-3.4916,-3.4915,-3.4913,-3.4912,0,0,-3.4924,-3.4929,-3.4944,-3.4952,-3.496,-3.4988,-3.5034,-3.5059,-3.5078,-3.5093,-3.513,-3.5173,-3.5142,-3.5154,-3.5136,-3.517,-3.5258,-3.5132,-3.5131,-3.5155,-3.5351,-3.5377,-3.5394,-3.5238,-3.5241,-3.5243,-3.535,0,-3.5031,-3.511,-3.5088,-3.5166,-3.52,-3.5158,-3.5197,-3.5206,-3.52,-3.5227,-3.522,-3.5252,-3.5208,-3.5215,-3.5247,-3.5241,-3.5297,-3.5233,-3.5272,-3.5274,-3.5271,-3.5412,-3.544,-3.5541,-3.5364,-3.5366,-3.5368,0,-3.5167,-3.5187,-3.5269,-3.5271,-3.5284,-3.532,-3.5342,-3.5368,-3.5378,-3.5371,-3.5385,-3.5359,-3.5403,-3.5349,-3.5409,-3.5366,-3.5381,-3.538,-3.5383,-3.5386,-3.5327,-3.5419,-3.5573,-3.5588,-3.5389,-3.5387,-3.5386,0,-3.5273,-3.5319,-3.5374,-3.5382,-3.5387,-3.5413,-3.5416,-3.5422,-3.5438,-3.5457,-3.5467,-3.549,-3.5503,-3.5522,-3.5503,-3.5465,-3.5566,-3.551,-3.5561,-3.5562,-3.5584,-3.5583,-3.5743,-3.5594,-3.5594,-3.5593,-3.5593,0,-3.5395,-3.5447,-3.5421,-3.5455,-3.5512,-3.5486,-3.5542,-3.554,-3.5546,-3.5578,-3.5543,-3.5574,-3.5547,-3.5575,-3.556,-3.5612,-3.5618,-3.5614,-3.5609,-3.5617,-3.5618,-3.5627,-3.5619,-3.5597,-3.5597,-3.5596,-3.5595,0,-3.5522,-3.5507,-3.5564,-3.5563,-3.5564,-3.5606,-3.5605,-3.5636,-3.5627,-3.5668,-3.5676,-3.5662,-3.5694,-3.5677,-3.5709,-3.5699,-3.5767,-3.5753,-3.5764,-3.576,-3.5812,-3.5808,-3.5983,-3.6004,-3.5842,-3.5843,-3.5845,0,-3.5601,-3.564,-3.5643,-3.5663,-3.5668,-3.5699,-3.5716,-3.5692,-3.5711,-3.5724,-3.5753,-3.5782,-3.5803,-3.5856,-3.5848,-3.5873,-3.5859,-3.5919,-3.5862,-3.5869,-3.586,-3.5858,-3.5862,-3.593,-3.5932,-3.5933,-3.5935,0,-3.5744,-3.5734,-3.576,-3.5783,-3.5804,-3.5821,-3.5835,-3.5853,-3.5829,-3.5852,-3.5884,-3.59,-3.5933,-3.5962,-3.5983,-3.5985,-3.5956,-3.5952,-3.5965,-3.5974,-3.5979,-3.5977,-3.5795,-3.5949,-3.5947,-3.5946,-3.5945,-3.5945,-3.5849,-3.5881,-3.5889,-3.5918,-3.5926,-3.594,-3.5969,-3.5964,-3.599,-3.6016,-3.6,-3.6037,-3.6045,-3.607,-3.6076,-3.6105,-3.6081,-3.61,-3.6105,-3.611,-3.6117,-3.5974,-3.6108,-3.6108,-3.6108,-3.6107,-3.6107,0,-3.599,-3.5992,-3.602,-3.604,-3.6064,-3.6034,-3.6048,-3.6069,-3.6103,-3.6113,-3.6135,-3.6171,-3.6199,-3.6193,-3.6218,-3.6242,-3.623,-3.625,-3.6248,-3.6249,-3.6137,-3.6123,-3.626,-3.626,-3.6259,-3.6259,-3.6259,-3.6259,-3.6065,-3.6119,-3.611,-3.6167,-3.6169,-3.6205,-3.6216,-3.6228,-3.6236,-3.6278,-3.6301,-3.6297,-3.6301,-3.6326,-3.635,-3.6347,-3.6358,-3.6383,-3.6376,-3.6272,-3.6257,-3.6242,-3.6229,-3.6386,-3.6386,-3.6486,-3.6487,-3.6487]}]]